SCP
0 0 0 0 0 0 0 0 0 0 0 0 0 0 0 0 0 0 0 -0 0 0 0 0 0 0 0 0 0 0 0 0 0 0 0 0 0 0 0 0 0 0 0 0
0 0 0 0 0 0 0 0 0 0 0 0 0 0 0 0 -0 0 0 0 0 0 0 0 0 0 0 0 0 0 0 0 0 0 0 0 0 0 0 0 0 0 0 0
0 0 0 0 0 0 0 0 0 0 0 0 0 0 0 0 0 0 0 0 0 0 0 0 0 0 0 0 0 0 0 0 0 0 0 0 0 0 0 0 0 0 0 0
0 0 0 0 0 0 0 0 0 0 0 0 0 0 0 0 0 0 0 0 0 0 0 0 0 0 0 0 0 0 0 0 0 0 0 0 0 0 0 0 0 0 0 0
0 0 0 0 0 0 0 0 0 0 0 0 0 0 0 0 0 0 0 0 0 0 0 0 0 0 0 0 0 0 0 0 0 0 0 0 0 0 0 0 0 0 0 0
0 0 0 0 0 0 0 0 0 0 0 0 0 0 0 0 0 0 0 0 0 0 0 0 0 0 0 0 0 0 0 0 0 0 0 0 0 0 0 0 0 0 0 0
0 -0 -0 0 0 0 0 0 0 0 0 0 0 0 0 0 0 0 0 0 0 0 0 0 0 0 0 0 0 0 0 0 0 0 0 0 0 0 0 0 0 0 0 0
0 0 0 0 0 0 0 0 0 0 0 0 0 0 0 0 0 0 0 0 0 0 0 0 0 0 0 0 0 0 0 0 0 0 0 0 0 0 0 0 0 0 0 0
0 0 0 0 0 0 0 0 0 0 0 0 0 0 0 0 0 0 0 0 0 0 0 0 -0 -0 -0 -0 -0 0 0 0 0 0 0 0 0 0 0 0 0 0 0 0
0 0 0 0 0 0 0 0 0 0 0 0 0 0 0 0 0 0 0 0 0 0 0 0 0 0 0 0 -0 0 0 0 0 0 0 0 0 0 0 0 0 0 0 0
0 0 0 0 0 0 0 0 0 0 0 0 0 0 0 0 0 0 0 0 0 0 -0 0 0 0 0 0 0 -0 -0 0 0 0 0 0 0 0 0 0 0 0 0 0
0 0 0 0 0 0 0 0 0 0 0 0 0 0 0 0 0 0 0 0 0 0 0 0 0 0 0 0 0 0 0 0 0 0 0 0 0 0 0 0 0 0 0 0
0 0 0 0 0 0 0 0 0 0 0 0 0 0 0 0 0 0 0 0 0 0 0 0 0 0 0 0 0 0 0 0 0 0 0 0 0 0 0 0 0 0 0 0
0 0 0 0 0 0 0 0 0 0 0 0 0 0 0 0 0 0 0 0 0 0 0 0 0 0 0 0 0 0 0 0 0 0 0 0 0 0 0 0 0 0 0 0
0 0 0 0 0 0 0 0 0 0 0 0 0 0 0 0 0 -0 0 0 0 0 0 0 0 0 0 0 0 0 0 0 0 0 0 0 0 0 0 0 0 0 0 0
0 0 0 0 0 0 0 0 0 0 0 0 0 0 0 0 0 0 0 0 0 0 0 0 0 0 0 0 0 0 0 0 0 0 0 0 0 0 0 0 0 0 0 0
0 0 0 0 0 0 0 0 0 0 0 0 0 0 0 0 0 0 0 0 0 0 0 0 0 0 0 0 0 0 0 0 0 0 0 0 0 0 0 0 0 0 0 0
0 0 0 0 0 0 0 0 0 0 0 0 0 0 0 0 0 0 0 0 0 0 0 0 0 0 0 0 0 0 0 0 0 0 0 0 0 0 0 0 0 0 0 0
0 0 0 0 0 0 0 0 0 0 0 0 0 0 0 0 0 0 0 0 0 0 0 0 0 0 0 0 0 0 0 0 0 0 0 0 0 0 0 0 0 0 0 0
0 0 0 0 0 0 0 0 0 0 0 0 0 0 0 0 0 0 0 0 0 0 0 0 0 0 0 0 0 0 0 0 0 0 0 0 0 0 0 0 0 0 0 0
0 0 0 0 0 0 0 0 0 0 0 0 0 0 0 0 0 0 0 0 0 0 0 0 0 0 0 0 0 0 0 0 0 0 0 0 0 0 0 0 0 0 0 0
0 0 0 0 0 0 0 0 0 0 0 0 0 0 0 0 0 0 0 0 0 0 0 0 0 0 0 0 0 0 0 0 0 0 0 0 0 0 0 0 0 0 0 0
0 0 0 0 0 0 0 0 0 0 0 0 0 0 0 0 0 0 0 0 0 0 0 0 0 0 0 0 0 0 0 0 0 0 0 0 0 0 0 0 0 0 0 0
0 0 0 0 0 0 0 0 0 0 0 0 0 0 0 0 0 0 0 0 0 0 0 0 0 0 0 0 0 0 0 0 0 0 0 0 0 0 0 0 0 0 0 0
0 0 0 0 0 0 0 0 0 0 0 0 0 0 0 0 0 0 0 0 0 0 0 0 0 0 0 0 0 0 0 0 0 0 0 0 0 0 0 0 0 0 0 0
0 0 0 0 0 0 0 0 0 0 0 0 0 0 0 0 0 0 0 0 0 0 0 0 0 0 0 0 0 0 0 0 0 0 0 0 0 0 0 0 0 0 0 0
Wind_Speed_500mb
15 9 15 28 21 11 6 10 16 16 26 11 17 13 19 35 36 36 44 37 41 34 47 79 85 88 83 85 87 78 71 63 58 63 64 60 54 48 45 39 32 28 33 37
2 20 28 21 20 22 22 23 24 19 14 4 14 15 8 10 12 28 39 51 46 29 37 68 83 92 91 92 95 85 71 62 55 53 49 48 47 46 46 44 37 31 34 39
13 17 30 18 22 22 26 23 12 12 7 5 10 12 1 3 21 38 49 47 53 37 19 40 68 91 96 100 98 83 70 58 50 41 38 38 41 44 49 51 41 37 38 42
16 37 30 23 21 21 21 14 11 7 9 5 7 12 9 12 12 20 41 56 56 54 27 6 58 82 91 93 86 72 61 50 34 30 29 36 43 49 52 41 38 40 40 44
15 6 16 17 17 12 7 4 2 1 4 4 6 5 10 5 11 9 15 44 52 55 39 22 38 60 75 80 74 62 46 36 27 30 32 33 38 43 40 40 42 42 39 41
16 32 4 10 2 6 9 7 12 10 5 9 17 15 10 9 18 10 10 31 53 57 58 35 19 25 36 44 43 39 34 26 28 30 29 31 33 40 42 46 48 46 44 43
13 35 22 10 9 5 8 11 4 6 2 11 9 4 10 12 13 13 17 31 47 53 49 45 44 27 12 16 26 26 25 24 26 27 30 35 38 44 45 47 49 53 47 44
18 12 27 16 35 12 11 14 10 12 8 7 11 8 6 8 20 31 43 43 44 41 40 37 33 31 22 6 13 18 22 26 28 31 34 34 41 47 51 49 50 51 45 41
13 11 2 2 13 28 9 9 16 8 6 6 8 3 5 6 10 25 31 36 30 40 29 28 27 24 16 7 9 15 21 27 32 35 35 37 43 51 55 54 49 48 45 44
6 1 4 1 10 3 20 14 8 5 6 10 8 8 10 10 7 12 18 29 23 30 22 17 10 6 3 2 3 5 15 26 35 39 44 46 47 51 54 54 53 49 49 49
10 10 7 4 5 14 5 9 6 13 9 8 5 10 9 14 15 13 6 20 10 21 9 7 14 8 4 8 8 9 5 18 33 41 45 48 48 50 52 57 58 58 55 53
9 10 10 9 5 6 5 9 11 9 10 7 7 9 9 11 25 19 26 31 6 13 16 19 23 22 19 15 9 2 16 21 26 33 40 47 49 49 49 59 61 61 58 56
13 5 4 7 6 7 7 6 8 9 6 8 8 9 11 20 18 16 27 6 16 21 21 30 33 35 27 19 16 9 14 18 23 29 37 44 50 54 53 54 57 63 64 64
12 7 7 18 8 7 8 2 6 8 6 5 8 14 31 15 8 13 20 28 46 46 35 29 40 33 28 23 17 10 10 11 14 21 33 44 50 52 52 54 56 63 67 66
9 8 7 7 8 6 2 7 9 4 6 9 12 19 33 9 16 23 36 50 49 44 28 31 41 30 23 18 11 10 12 12 7 14 28 43 53 57 60 58 60 66 67 66
3 7 6 3 7 6 8 9 9 13 14 13 15 29 22 45 30 35 46 52 52 28 26 43 38 30 20 13 13 17 21 18 23 23 27 34 45 51 59 64 65 69 70 72
9 10 5 4 2 9 12 10 16 8 8 9 10 21 20 15 17 21 21 16 12 22 38 34 27 20 16 16 21 24 24 31 36 40 38 30 34 52 56 66 66 70 78 72
13 12 6 6 7 4 11 1 6 8 14 3 12 12 5 5 15 22 24 28 28 23 17 13 12 13 16 19 21 27 29 35 39 43 37 31 33 39 46 56 63 77 67 63
9 10 6 10 8 8 17 11 9 6 8 3 6 2 5 13 14 11 11 12 11 5 5 9 10 14 17 19 21 26 30 35 35 27 30 30 28 30 41 56 63 61 47 43
8 8 8 6 8 16 8 5 14 9 15 7 4 4 8 13 6 8 12 14 15 15 17 17 17 16 18 15 21 25 30 31 29 20 24 28 26 28 36 49 44 40 44 48
8 2 11 6 7 12 14 11 4 8 15 15 14 8 6 3 8 22 20 20 17 18 19 24 19 19 23 18 19 25 28 24 19 20 24 24 20 24 33 34 35 42 44 41
14 15 8 6 6 17 16 14 17 15 13 17 15 6 2 10 15 18 21 21 22 23 27 30 26 22 26 25 26 27 23 17 19 21 20 19 19 22 29 32 33 34 37 38
6 11 10 17 14 12 18 15 4 8 16 18 14 10 4 6 13 19 26 38 34 30 28 32 28 30 29 28 28 29 20 18 19 20 15 17 22 24 25 29 31 31 39 38
3 6 6 3 6 10 22 15 10 7 13 10 5 5 11 20 20 16 19 30 40 41 29 24 29 29 34 30 26 22 16 19 19 15 12 19 25 27 25 24 31 33 41 39
11 5 3 8 8 21 33 24 16 12 8 11 9 13 17 17 13 11 19 28 34 26 25 24 25 34 38 31 25 21 16 18 18 16 20 29 31 28 25 26 29 34 35 33
15 10 8 18 17 13 27 27 25 26 34 38 42 39 33 29 28 24 30 34 32 27 24 19 31 38 39 30 26 21 20 18 19 22 29 31 31 27 27 28 26 25 21 24
Wind_Direction_500mb
184 181 211 215 211 214 254 269 269 273 276 275 302 307 301 310 320 336 348 348 331 300 258 231 213 212 212 210 206 213 216 213 217 216 219 223 230 237 243 245 243 238 240 242
29 235 227 227 231 234 244 253 265 273 248 349 323 306 290 330 13 53 37 34 14 342 261 224 212 212 212 210 207 210 215 222 222 225 225 226 231 238 245 250 249 248 242 240
195 236 221 219 244 239 244 240 248 248 277 3 348 313 43 341 61 60 51 49 42 26 332 223 217 213 207 206 203 205 208 215 219 223 222 222 226 232 240 245 252 257 250 243
243 244 249 229 236 226 243 231 239 343 12 267 88 290 220 257 103 53 59 54 43 34 29 213 199 203 200 198 199 205 208 211 218 226 236 244 250 248 248 252 255 256 253 245
232 240 221 235 230 222 235 152 116 30 319 322 200 246 270 214 115 98 64 72 63 56 54 128 179 189 193 195 199 204 206 212 229 253 254 251 252 255 256 253 255 261 259 247
245 274 217 221 293 145 163 82 38 34 43 291 221 191 296 330 127 96 65 69 70 75 80 83 117 172 187 193 199 206 212 234 253 257 265 270 271 264 260 263 267 270 264 250
255 258 260 254 281 203 111 82 358 342 295 231 341 160 253 107 117 119 114 97 81 73 78 93 97 99 127 199 208 217 239 257 266 265 278 283 274 264 264 264 273 278 266 257
200 288 222 207 207 184 175 154 157 210 217 281 311 238 152 124 121 107 109 105 100 86 76 76 83 99 108 146 250 263 277 293 273 272 274 274 268 262 260 265 277 276 267 263
173 240 46 90 183 175 188 180 177 114 17 42 234 112 335 166 71 79 63 68 93 100 94 93 97 101 125 134 235 270 289 299 293 286 271 273 271 266 270 275 276 270 262 257
229 12 280 180 80 68 194 164 116 26 185 239 260 232 192 134 99 47 50 29 93 120 99 73 54 354 323 124 59 286 279 272 279 277 266 264 263 269 276 274 264 261 255 257
173 132 282 100 186 182 154 150 108 136 167 190 205 248 211 146 112 111 301 348 356 158 164 281 281 234 241 317 11 37 307 279 277 274 273 268 266 272 275 266 262 253 249 251
174 142 195 195 355 141 121 157 144 153 209 193 184 258 173 117 76 10 347 327 311 218 219 217 218 216 223 226 255 324 322 300 274 273 277 279 282 283 275 272 262 252 250 245
172 183 105 12 340 358 95 66 103 109 85 188 155 250 173 79 69 360 296 312 347 326 282 231 211 204 213 217 238 270 269 282 290 287 283 274 271 271 275 269 265 261 246 235
98 95 189 215 158 140 157 167 88 117 107 186 233 298 283 308 289 253 234 290 307 301 279 256 183 188 197 209 224 247 263 283 283 289 283 279 276 270 269 266 264 260 242 232
97 126 86 82 101 85 141 253 98 99 156 175 240 227 272 244 245 261 290 293 291 285 278 222 184 180 190 210 244 284 293 281 253 292 288 284 282 282 278 270 251 241 227 224
68 112 108 112 177 157 261 240 166 213 245 250 267 272 277 297 292 289 298 302 294 287 205 178 184 188 194 220 259 279 291 256 261 272 292 272 271 276 267 257 244 237 228 228
118 130 105 273 211 55 311 266 207 170 210 200 240 260 281 295 349 350 335 341 335 175 159 165 176 191 215 244 266 272 275 271 277 284 288 288 290 278 258 246 235 234 233 232
136 120 100 130 101 227 234 58 228 214 260 324 280 306 42 333 99 83 85 93 101 123 148 177 203 233 246 262 268 272 277 277 281 274 281 290 291 281 258 237 250 231 224 222
122 120 127 155 197 312 278 189 200 132 285 214 160 301 318 358 152 79 85 82 94 128 211 237 231 241 259 270 277 278 288 296 297 293 288 288 288 275 260 239 235 220 217 224
125 61 114 160 167 204 242 128 96 100 272 140 125 10 7 18 37 258 248 261 266 256 238 245 262 266 268 265 279 286 295 303 301 294 291 284 272 269 258 241 222 226 232 232
130 107 178 147 206 275 225 185 343 170 244 172 152 135 33 148 258 291 290 283 266 260 254 263 269 296 296 295 292 296 298 303 293 288 282 269 262 259 243 225 222 230 229 219
166 168 191 98 169 261 194 211 171 200 197 216 208 210 26 353 345 322 283 256 260 274 274 267 268 279 296 307 306 301 303 297 284 281 268 263 247 238 229 227 228 229 223 212
199 181 181 184 208 211 189 200 172 242 255 237 220 226 197 291 328 333 300 263 260 279 273 254 267 282 302 304 299 297 303 285 285 288 271 248 233 227 227 236 231 216 213 209
230 161 189 99 252 212 229 230 225 245 209 168 211 298 299 297 305 306 304 277 268 281 255 259 260 281 297 295 294 295 287 285 278 271 250 231 228 229 230 230 230 215 211 205
210 52 187 267 266 277 271 266 254 189 238 187 240 288 288 276 280 309 307 296 282 252 238 245 275 283 291 288 289 276 264 270 261 242 229 222 217 224 226 218 223 221 222 224
192 185 193 251 208 241 264 277 283 288 292 293 296 292 270 253 256 279 302 292 255 240 239 246 266 273 279 282 281 274 277 271 248 227 221 217 216 212 214 210 204 222 229 223
Wind_Speed_850mb
15 9 15 28 21 11 6 10 16 16 26 11 17 13 19 35 36 36 44 37 41 34 47 79 85 88 83 85 87 78 71 63 58 63 64 60 54 48 45 39 32 28 33 37
2 20 28 21 20 22 22 23 24 19 14 4 14 15 8 10 12 28 39 51 46 29 37 68 83 92 91 92 95 85 71 62 55 53 49 48 47 46 46 44 37 31 34 39
13 17 30 18 22 22 26 23 12 12 7 5 10 12 1 3 21 38 49 47 53 37 19 40 68 91 96 100 98 83 70 58 50 41 38 38 41 44 49 51 41 37 38 42
16 37 30 23 21 21 21 14 11 7 9 5 7 12 9 12 12 20 41 56 56 54 27 6 58 82 91 93 86 72 61 50 34 30 29 36 43 49 52 41 38 40 40 44
15 6 16 17 17 12 7 4 2 1 4 4 6 5 10 5 11 9 15 44 52 55 39 22 38 60 75 80 74 62 46 36 27 30 32 33 38 43 40 40 42 42 39 41
16 32 4 10 2 6 9 7 12 10 5 9 17 15 10 9 18 10 10 31 53 57 58 35 19 25 36 44 43 39 34 26 28 30 29 31 33 40 42 46 48 46 44 43
13 35 22 10 9 5 8 11 4 6 2 11 9 4 10 12 13 13 17 31 47 53 49 45 44 27 12 16 26 26 25 24 26 27 30 35 38 44 45 47 49 53 47 44
18 12 27 16 35 12 11 14 10 12 8 7 11 8 6 8 20 31 43 43 44 41 40 37 33 31 22 6 13 18 22 26 28 31 34 34 41 47 51 49 50 51 45 41
13 11 2 2 13 28 9 9 16 8 6 6 8 3 5 6 10 25 31 36 30 40 29 28 27 24 16 7 9 15 21 27 32 35 35 37 43 51 55 54 49 48 45 44
6 1 4 1 10 3 20 14 8 5 6 10 8 8 10 10 7 12 18 29 23 30 22 17 10 6 3 2 3 5 15 26 35 39 44 46 47 51 54 54 53 49 49 49
10 10 7 4 5 14 5 9 6 13 9 8 5 10 9 14 15 13 6 20 10 21 9 7 14 8 4 8 8 9 5 18 33 41 45 48 48 50 52 57 58 58 55 53
9 10 10 9 5 6 5 9 11 9 10 7 7 9 9 11 25 19 26 31 6 13 16 19 23 22 19 15 9 2 16 21 26 33 40 47 49 49 49 59 61 61 58 56
13 5 4 7 6 7 7 6 8 9 6 8 8 9 11 20 18 16 27 6 16 21 21 30 33 35 27 19 16 9 14 18 23 29 37 44 50 54 53 54 57 63 64 64
12 7 7 18 8 7 8 2 6 8 6 5 8 14 31 15 8 13 20 28 46 46 35 29 40 33 28 23 17 10 10 11 14 21 33 44 50 52 52 54 56 63 67 66
9 8 7 7 8 6 2 7 9 4 6 9 12 19 33 9 16 23 36 50 49 44 28 31 41 30 23 18 11 10 12 12 7 14 28 43 53 57 60 58 60 66 67 66
3 7 6 3 7 6 8 9 9 13 14 13 15 29 22 45 30 35 46 52 52 28 26 43 38 30 20 13 13 17 21 18 23 23 27 34 45 51 59 64 65 69 70 72
9 10 5 4 2 9 12 10 16 8 8 9 10 21 20 15 17 21 21 16 12 22 38 34 27 20 16 16 21 24 24 31 36 40 38 30 34 52 56 66 66 70 78 72
13 12 6 6 7 4 11 1 6 8 14 3 12 12 5 5 15 22 24 28 28 23 17 13 12 13 16 19 21 27 29 35 39 43 37 31 33 39 46 56 63 77 67 63
9 10 6 10 8 8 17 11 9 6 8 3 6 2 5 13 14 11 11 12 11 5 5 9 10 14 17 19 21 26 30 35 35 27 30 30 28 30 41 56 63 61 47 43
8 8 8 6 8 16 8 5 14 9 15 7 4 4 8 13 6 8 12 14 15 15 17 17 17 16 18 15 21 25 30 31 29 20 24 28 26 28 36 49 44 40 44 48
8 2 11 6 7 12 14 11 4 8 15 15 14 8 6 3 8 22 20 20 17 18 19 24 19 19 23 18 19 25 28 24 19 20 24 24 20 24 33 34 35 42 44 41
14 15 8 6 6 17 16 14 17 15 13 17 15 6 2 10 15 18 21 21 22 23 27 30 26 22 26 25 26 27 23 17 19 21 20 19 19 22 29 32 33 34 37 38
6 11 10 17 14 12 18 15 4 8 16 18 14 10 4 6 13 19 26 38 34 30 28 32 28 30 29 28 28 29 20 18 19 20 15 17 22 24 25 29 31 31 39 38
3 6 6 3 6 10 22 15 10 7 13 10 5 5 11 20 20 16 19 30 40 41 29 24 29 29 34 30 26 22 16 19 19 15 12 19 25 27 25 24 31 33 41 39
11 5 3 8 8 21 33 24 16 12 8 11 9 13 17 17 13 11 19 28 34 26 25 24 25 34 38 31 25 21 16 18 18 16 20 29 31 28 25 26 29 34 35 33
15 10 8 18 17 13 27 27 25 26 34 38 42 39 33 29 28 24 30 34 32 27 24 19 31 38 39 30 26 21 20 18 19 22 29 31 31 27 27 28 26 25 21 24
Wind_Direction_850mb
184 181 211 215 211 214 254 269 269 273 276 275 302 307 301 310 320 336 348 348 331 300 258 231 213 212 212 210 206 213 216 213 217 216 219 223 230 237 243 245 243 238 240 242
29 235 227 227 231 234 244 253 265 273 248 349 323 306 290 330 13 53 37 34 14 342 261 224 212 212 212 210 207 210 215 222 222 225 225 226 231 238 245 250 249 248 242 240
195 236 221 219 244 239 244 240 248 248 277 3 348 313 43 341 61 60 51 49 42 26 332 223 217 213 207 206 203 205 208 215 219 223 222 222 226 232 240 245 252 257 250 243
243 244 249 229 236 226 243 231 239 343 12 267 88 290 220 257 103 53 59 54 43 34 29 213 199 203 200 198 199 205 208 211 218 226 236 244 250 248 248 252 255 256 253 245
232 240 221 235 230 222 235 152 116 30 319 322 200 246 270 214 115 98 64 72 63 56 54 128 179 189 193 195 199 204 206 212 229 253 254 251 252 255 256 253 255 261 259 247
245 274 217 221 293 145 163 82 38 34 43 291 221 191 296 330 127 96 65 69 70 75 80 83 117 172 187 193 199 206 212 234 253 257 265 270 271 264 260 263 267 270 264 250
255 258 260 254 281 203 111 82 358 342 295 231 341 160 253 107 117 119 114 97 81 73 78 93 97 99 127 199 208 217 239 257 266 265 278 283 274 264 264 264 273 278 266 257
200 288 222 207 207 184 175 154 157 210 217 281 311 238 152 124 121 107 109 105 100 86 76 76 83 99 108 146 250 263 277 293 273 272 274 274 268 262 260 265 277 276 267 263
173 240 46 90 183 175 188 180 177 114 17 42 234 112 335 166 71 79 63 68 93 100 94 93 97 101 125 134 235 270 289 299 293 286 271 273 271 266 270 275 276 270 262 257
229 12 280 180 80 68 194 164 116 26 185 239 260 232 192 134 99 47 50 29 93 120 99 73 54 354 323 124 59 286 279 272 279 277 266 264 263 269 276 274 264 261 255 257
173 132 282 100 186 182 154 150 108 136 167 190 205 248 211 146 112 111 301 348 356 158 164 281 281 234 241 317 11 37 307 279 277 274 273 268 266 272 275 266 262 253 249 251
174 142 195 195 355 141 121 157 144 153 209 193 184 258 173 117 76 10 347 327 311 218 219 217 218 216 223 226 255 324 322 300 274 273 277 279 282 283 275 272 262 252 250 245
172 183 105 12 340 358 95 66 103 109 85 188 155 250 173 79 69 360 296 312 347 326 282 231 211 204 213 217 238 270 269 282 290 287 283 274 271 271 275 269 265 261 246 235
98 95 189 215 158 140 157 167 88 117 107 186 233 298 283 308 289 253 234 290 307 301 279 256 183 188 197 209 224 247 263 283 283 289 283 279 276 270 269 266 264 260 242 232
97 126 86 82 101 85 141 253 98 99 156 175 240 227 272 244 245 261 290 293 291 285 278 222 184 180 190 210 244 284 293 281 253 292 288 284 282 282 278 270 251 241 227 224
68 112 108 112 177 157 261 240 166 213 245 250 267 272 277 297 292 289 298 302 294 287 205 178 184 188 194 220 259 279 291 256 261 272 292 272 271 276 267 257 244 237 228 228
118 130 105 273 211 55 311 266 207 170 210 200 240 260 281 295 349 350 335 341 335 175 159 165 176 191 215 244 266 272 275 271 277 284 288 288 290 278 258 246 235 234 233 232
136 120 100 130 101 227 234 58 228 214 260 324 280 306 42 333 99 83 85 93 101 123 148 177 203 233 246 262 268 272 277 277 281 274 281 290 291 281 258 237 250 231 224 222
122 120 127 155 197 312 278 189 200 132 285 214 160 301 318 358 152 79 85 82 94 128 211 237 231 241 259 270 277 278 288 296 297 293 288 288 288 275 260 239 235 220 217 224
125 61 114 160 167 204 242 128 96 100 272 140 125 10 7 18 37 258 248 261 266 256 238 245 262 266 268 265 279 286 295 303 301 294 291 284 272 269 258 241 222 226 232 232
130 107 178 147 206 275 225 185 343 170 244 172 152 135 33 148 258 291 290 283 266 260 254 263 269 296 296 295 292 296 298 303 293 288 282 269 262 259 243 225 222 230 229 219
166 168 191 98 169 261 194 211 171 200 197 216 208 210 26 353 345 322 283 256 260 274 274 267 268 279 296 307 306 301 303 297 284 281 268 263 247 238 229 227 228 229 223 212
199 181 181 184 208 211 189 200 172 242 255 237 220 226 197 291 328 333 300 263 260 279 273 254 267 282 302 304 299 297 303 285 285 288 271 248 233 227 227 236 231 216 213 209
230 161 189 99 252 212 229 230 225 245 209 168 211 298 299 297 305 306 304 277 268 281 255 259 260 281 297 295 294 295 287 285 278 271 250 231 228 229 230 230 230 215 211 205
210 52 187 267 266 277 271 266 254 189 238 187 240 288 288 276 280 309 307 296 282 252 238 245 275 283 291 288 289 276 264 270 261 242 229 222 217 224 226 218 223 221 222 224
192 185 193 251 208 241 264 277 283 288 292 293 296 292 270 253 256 279 302 292 255 240 239 246 266 273 279 282 281 274 277 271 248 227 221 217 216 212 214 210 204 222 229 223